SL-16 DEB, 26968

Orbit data source: Space-Track

SL-16 DEB, 26968 is space debris in LEO originally from a launch on Fri, 26 Mar 1993 UTC launched from the Tyuratam Missile And Space Complex (TTMTR). Debris objects in space refer to the collection of defunct objects orbiting the Earth. Examples of debris include non-operational satellites, rocket bodies, and fragments generated from explosions, collisions, or faulty payload assembly.

Loading next visibility...
SL-16 DEB details
Identifier
26968, 1993-016AJ
Orbit
LEO
Last TLE update8 hours ago
Origin
Flag of CISRVSN RF (CIS)
ManufacturerUnknown
MissionSpacecraft
Bus & MotorUnknown
MassUnknown
Launch date (UTC)
1993-03-26 (32 years ago)
Launch vehicleUnknown
Launch site
Tyuratam Missile And Space Complex (TTMTR)
Object type
Payload
Rocket body
Debris
Shape & HBRUnknown
Radar Cross SectionSmall (<0.1 m²)

Expand to show TLE details & history

TLE from 8 hours ago
0 SL-16 DEB
1 26968U 93016AJ  24361.18863204  .00006718  00000-0  21538-2 0  9991
2 26968  70.9978   4.2267 0009866 333.3499 103.1461 14.39781639651747
Epoch: 2024-12-26T04:31Z
Definitive object data (Epoch: 2024-12-26T04:31:37.808Z)
Latitude66.99641°
Longitude-105.06581°
Altitude771.869 km
Speed7.474 km/s
True Right ascension03h 52m 03s
True Declination66° 52' 22"
Sunlit
Object was in full shadow at TLE epoch
Visualization TLE readout
Latitude-71.09101°
Longitude110.96531°
Altitude781.842 km
Speed7.464 km/s
Apparent Right ascension21h 55m 41s
Apparent Declination-61° 35' 45"
Sunlit
Object is in daylight
Visualization observer readout
Local Sidereal Time11:27:07
Azimuth154.839° SSE
Elevation-64.239°
Doppler factor1
Orbital elements
Apogee altitude764.161 km
Perigee altitude750.081 km
Semi-major axis7,135.258 km
Eccentricity0.0009866
Inclination70.9978°
RAAN4.2267°
Arg. of periapsis333.3499°
True anomaly103.25616°
Mean anomaly103.1461°
Eccentric anomaly103.20113°
Mean motion3.60105 °/min
BSTAR0.0021538
Orbital period99.97 mins
Loading maneuver chart data...
Loading historical data...
Loading historical data...
Loading historical data...
Loading historical data...
Loading historical data...
Loading historical data...
Loading historical data...

SL-16 DEB Visibility forecast

Observer location: undefined°, undefined

Span
Click to sort rows by Start time (UTC) header in descending order
Start Az.
Max El. time (UTC)
Max El. Az.
Max El.
End time (UTC)
End Az.
5 mins2024-12-26 13:07:39.715Z289.042° WNW2024-12-26 13:09:39.715Z264.899° W14.526°2024-12-26 13:12:39.715Z228.825° WSW
8 mins2024-12-27 01:59:39.715Z212.42° SW2024-12-27 02:02:39.715Z259.21° W43.074°2024-12-27 02:07:39.715Z18.477° NNE
8 mins2024-12-27 10:44:39.715Z0.328° NNE2024-12-27 10:48:39.715Z70.792° E30.346°2024-12-27 10:52:39.715Z124.887° SE
|